TVF8093 OEMA-LFML

Flight info

Callsign TVF8093
Flight time 5h 16m
Altitude 30000
Route PEGUR Z712 WEJ L677 KAPIT/N0465F320 L677 CVO L617 NABSI M872 METRU UL81 LORNO DCT PNZ DCT BEGUD DCT MIRSA DCT OMARD DCT STP/N0374F180 A3 RUBIT G7 LANKO
Aircraft B738/M-SDE2E3FGHIRWXY/LB1

Departure

Time 2026-04-20 12:11
Airport Prince Mohammad Bin Abdulaziz Airport (OEMA)

Arrival

Time 2026-04-20 17:27
Airport Marseille Provence Airport (LFML)
Time Latitude Longitude Altitude Speed Heading
2026-04-20 11:28 24.55565 39.71300 2142 ft 0 kts 92°
2026-04-20 11:56 24.55566 39.71281 2142 ft 4 kts 86°
2026-04-20 11:56 24.55563 39.71252 2142 ft 4 kts 87°
2026-04-20 11:56 24.55563 39.71223 2142 ft 4 kts 95°
2026-04-20 11:56 24.55568 39.71194 2142 ft 4 kts 116°
2026-04-20 11:57 24.55583 39.71175 2142 ft 3 kts 166°
2026-04-20 11:57 24.55587 39.71174 2142 ft 0 kts 169°
2026-04-20 11:59 24.55586 39.71174 2142 ft 0 kts 169°
2026-04-20 12:00 24.55580 39.71176 2142 ft 3 kts 169°
2026-04-20 12:00 24.55568 39.71178 2142 ft 2 kts 168°
2026-04-20 12:00 24.55552 39.71182 2142 ft 2 kts 168°
2026-04-20 12:01 24.55537 39.71186 2142 ft 2 kts 167°
2026-04-20 12:01 24.55519 39.71190 2142 ft 5 kts 167°
2026-04-20 12:01 24.55474 39.71201 2142 ft 7 kts 170°
2026-04-20 12:01 24.55428 39.71209 2142 ft 7 kts 170°
2026-04-20 12:02 24.55377 39.71220 2142 ft 8 kts 169°
2026-04-20 12:02 24.55322 39.71231 2142 ft 8 kts 168°
2026-04-20 12:02 24.55272 39.71225 2142 ft 8 kts 232°
2026-04-20 12:02 24.55255 39.71172 2142 ft 7 kts 253°
2026-04-20 12:03 24.55243 39.71119 2142 ft 7 kts 258°
2026-04-20 12:03 24.55234 39.71067 2142 ft 7 kts 252°
2026-04-20 12:03 24.55196 39.71047 2142 ft 7 kts 171°
2026-04-20 12:03 24.55152 39.71055 2142 ft 6 kts 169°
2026-04-20 12:04 24.55109 39.71064 2142 ft 6 kts 169°
2026-04-20 12:04 24.55067 39.71073 2142 ft 6 kts 168°
2026-04-20 12:04 24.55027 39.71082 2142 ft 6 kts 168°
2026-04-20 12:04 24.54988 39.71091 2142 ft 6 kts 168°
2026-04-20 12:05 24.54951 39.71099 2142 ft 5 kts 168°
2026-04-20 12:05 24.54914 39.71108 2142 ft 5 kts 168°
2026-04-20 12:05 24.54878 39.71116 2142 ft 5 kts 168°
2026-04-20 12:05 24.54845 39.71123 2142 ft 5 kts 168°
2026-04-20 12:06 24.54808 39.71131 2142 ft 6 kts 169°
2026-04-20 12:06 24.54757 39.71139 2142 ft 8 kts 169°
2026-04-20 12:06 24.54694 39.71153 2142 ft 10 kts 169°
2026-04-20 12:06 24.54620 39.71169 2142 ft 12 kts 168°
2026-04-20 12:07 24.54538 39.71187 2142 ft 12 kts 168°
2026-04-20 12:07 24.54457 39.71205 2142 ft 12 kts 168°
2026-04-20 12:07 24.54379 39.71222 2142 ft 11 kts 169°
2026-04-20 12:07 24.54303 39.71238 2142 ft 12 kts 169°
2026-04-20 12:08 24.54221 39.71255 2142 ft 12 kts 171°
2026-04-20 12:08 24.54133 39.71272 2142 ft 13 kts 169°
2026-04-20 12:08 24.54043 39.71292 2142 ft 13 kts 169°
2026-04-20 12:08 24.53955 39.71310 2142 ft 13 kts 169°
2026-04-20 12:09 24.53870 39.71325 2142 ft 12 kts 183°
2026-04-20 12:09 24.53830 39.71252 2142 ft 12 kts 252°
2026-04-20 12:09 24.53820 39.71167 2142 ft 11 kts 295°
2026-04-20 12:09 24.53887 39.71128 2142 ft 14 kts 349°
2026-04-20 12:10 24.54142 39.71072 2142 ft 64 kts 347°
2026-04-20 12:10 24.54749 39.70944 2142 ft 112 kts 348°
2026-04-20 12:10 24.55647 39.70753 2142 ft 153 kts 351°
2026-04-20 12:10 24.56765 39.70545 2445 ft 161 kts 349°
2026-04-20 12:11 24.57894 39.70420 2819 ft 171 kts 347°
2026-04-20 12:11 24.59106 39.70135 3141 ft 183 kts 342°
2026-04-20 12:11 24.60338 39.69799 3726 ft 183 kts 342°
2026-04-20 12:11 24.61614 39.69495 4060 ft 197 kts 344°
2026-04-20 12:12 24.63022 39.69184 4276 ft 216 kts 345°
2026-04-20 12:12 24.64568 39.68855 4482 ft 237 kts 345°
2026-04-20 12:12 24.66259 39.68498 4715 ft 257 kts 346°
2026-04-20 12:12 24.68065 39.68115 5094 ft 272 kts 346°
2026-04-20 12:13 24.69969 39.67711 5525 ft 285 kts 346°
2026-04-20 12:13 24.71939 39.67292 6123 ft 291 kts 346°
2026-04-20 12:13 24.73936 39.66867 6807 ft 294 kts 346°
2026-04-20 12:13 24.75951 39.66437 7498 ft 297 kts 346°
2026-04-20 12:14 24.77987 39.66003 8172 ft 299 kts 346°
2026-04-20 12:14 24.80043 39.65564 8786 ft 303 kts 346°
2026-04-20 12:14 24.82119 39.65122 9413 ft 306 kts 346°
2026-04-20 12:14 24.84232 39.64671 9876 ft 312 kts 345°
2026-04-20 12:15 24.86365 39.64203 10005 ft 314 kts 344°
2026-04-20 12:15 24.88571 39.63650 10025 ft 337 kts 343°
2026-04-20 12:15 24.90937 39.63061 10032 ft 360 kts 344°
2026-04-20 12:15 24.93417 39.62336 10036 ft 375 kts 335°
2026-04-20 12:16 24.95697 39.60904 10143 ft 379 kts 318°
2026-04-20 12:16 24.97544 39.58859 10325 ft 376 kts 305°
2026-04-20 12:16 24.99037 39.56508 10972 ft 373 kts 298°
2026-04-20 12:16 25.00382 39.54058 11625 ft 373 kts 296°
2026-04-20 12:17 25.01707 39.51593 12217 ft 375 kts 296°
2026-04-20 12:17 25.03078 39.49133 12796 ft 377 kts 297°
2026-04-20 12:17 25.04479 39.46680 13373 ft 379 kts 297°
2026-04-20 12:17 25.05912 39.44230 13942 ft 381 kts 297°
2026-04-20 12:18 25.07357 39.41772 14499 ft 383 kts 297°
2026-04-20 12:18 25.08806 39.39303 15026 ft 384 kts 297°
2026-04-20 12:18 25.10261 39.36821 15554 ft 386 kts 297°
2026-04-20 12:18 25.11722 39.34326 16053 ft 388 kts 296°
2026-04-20 12:19 25.13188 39.31822 16556 ft 389 kts 296°
2026-04-20 12:19 25.14660 39.29306 17046 ft 391 kts 296°
2026-04-20 12:19 25.16136 39.26779 17506 ft 393 kts 296°
2026-04-20 12:19 25.17619 39.24242 17992 ft 394 kts 296°
2026-04-20 12:20 25.19105 39.21698 18433 ft 396 kts 296°
2026-04-20 12:20 25.20602 39.19138 18856 ft 398 kts 296°
2026-04-20 12:20 25.22084 39.16602 19289 ft 399 kts 296°
2026-04-20 12:20 25.23612 39.13985 19695 ft 401 kts 296°
2026-04-20 12:21 25.25112 39.11430 20098 ft 402 kts 296°
2026-04-20 12:21 25.26638 39.08834 20506 ft 404 kts 296°
2026-04-20 12:21 25.28164 39.06224 20898 ft 406 kts 296°
2026-04-20 12:21 25.29717 39.03566 21276 ft 407 kts 296°
2026-04-20 12:22 25.31235 39.00964 21602 ft 409 kts 296°
2026-04-20 12:22 25.32781 38.98314 21976 ft 410 kts 296°
2026-04-20 12:22 25.34330 38.95659 22309 ft 412 kts 296°
2026-04-20 12:22 25.35886 38.92988 22647 ft 413 kts 296°
2026-04-20 12:23 25.37443 38.90313 22965 ft 415 kts 296°
2026-04-20 12:23 25.39006 38.87627 23281 ft 416 kts 296°
2026-04-20 12:23 25.40572 38.84934 23598 ft 417 kts 296°
2026-04-20 12:23 25.42158 38.82237 23905 ft 418 kts 296°
2026-04-20 12:24 25.43743 38.79537 24177 ft 420 kts 296°
2026-04-20 12:24 25.45329 38.76825 24494 ft 420 kts 296°
2026-04-20 12:24 25.46919 38.74101 24715 ft 423 kts 296°
2026-04-20 12:24 25.48515 38.71364 24973 ft 424 kts 296°
2026-04-20 12:25 25.50112 38.68619 25311 ft 423 kts 296°
2026-04-20 12:25 25.51706 38.65879 25604 ft 424 kts 296°
2026-04-20 12:25 25.53302 38.63131 25861 ft 425 kts 296°
2026-04-20 12:25 25.54900 38.60379 26144 ft 425 kts 296°
2026-04-20 12:26 25.56498 38.57624 26411 ft 425 kts 296°
2026-04-20 12:26 25.58095 38.54870 26700 ft 425 kts 296°
2026-04-20 12:26 25.59690 38.52116 27058 ft 423 kts 296°
2026-04-20 12:26 25.61271 38.49385 27476 ft 419 kts 296°
2026-04-20 12:27 25.62836 38.46680 27914 ft 416 kts 296°
2026-04-20 12:27 25.64393 38.43987 28338 ft 412 kts 296°
2026-04-20 12:27 25.65935 38.41319 28727 ft 410 kts 296°
2026-04-20 12:27 25.67467 38.38668 29136 ft 407 kts 296°
2026-04-20 12:28 25.68983 38.36041 29565 ft 403 kts 296°
2026-04-20 12:28 25.70489 38.33431 29907 ft 402 kts 296°
2026-04-20 12:28 25.73508 38.28193 29976 ft 403 kts 296°
2026-04-20 12:29 25.76519 38.22965 29981 ft 401 kts 295°
2026-04-20 12:29 25.79519 38.17749 29982 ft 401 kts 295°
2026-04-20 12:30 25.82516 38.12532 29982 ft 401 kts 295°
2026-04-20 12:30 25.85529 38.07315 29977 ft 401 kts 295°
2026-04-20 12:31 25.88527 38.02089 29969 ft 401 kts 295°
2026-04-20 12:31 25.91515 37.96859 29967 ft 401 kts 295°
2026-04-20 12:32 25.94500 37.91627 29968 ft 401 kts 295°
2026-04-20 12:32 25.97483 37.86395 29968 ft 401 kts 295°
2026-04-20 12:33 25.99991 37.80947 29978 ft 392 kts 283°
2026-04-20 12:33 26.00714 37.78028 30129 ft 392 kts 279°
2026-04-20 12:33 26.01299 37.75089 30483 ft 388 kts 277°
2026-04-20 12:34 26.01752 37.72145 30821 ft 385 kts 275°
2026-04-20 12:34 26.02149 37.69212 31205 ft 382 kts 275°
2026-04-20 12:34 26.02541 37.66302 31579 ft 379 kts 275°
2026-04-20 12:34 26.02930 37.63416 31945 ft 376 kts 275°
2026-04-20 12:35 26.03317 37.60548 32160 ft 376 kts 275°
2026-04-20 12:35 26.03706 37.57663 32124 ft 377 kts 275°
2026-04-20 12:35 26.04474 37.51977 31690 ft 365 kts 275°
2026-04-20 12:36 26.04851 37.49195 31059 ft 364 kts 275°
2026-04-20 12:36 26.05223 37.46392 30420 ft 367 kts 275°
2026-04-20 12:36 26.05597 37.43564 30234 ft 373 kts 275°
2026-04-20 12:36 26.05977 37.40687 30110 ft 380 kts 275°
2026-04-20 12:37 26.06363 37.37759 29995 ft 385 kts 275°
2026-04-20 12:37 26.06752 37.34791 29938 ft 389 kts 275°
2026-04-20 12:37 26.07536 37.28812 29832 ft 391 kts 275°
2026-04-20 12:38 26.08317 37.22829 29824 ft 391 kts 275°
2026-04-20 12:38 26.09097 37.16841 29822 ft 391 kts 275°
2026-04-20 12:39 26.10290 37.07861 29822 ft 391 kts 275°
2026-04-20 12:40 26.11083 37.01878 29824 ft 391 kts 275°
2026-04-20 12:40 26.11867 36.95884 29823 ft 391 kts 275°
2026-04-20 12:41 26.12645 36.89887 29822 ft 391 kts 275°
2026-04-20 12:41 26.13420 36.83918 29821 ft 393 kts 275°
2026-04-20 12:42 26.14212 36.77912 29820 ft 392 kts 275°
2026-04-20 12:42 26.14981 36.71902 29819 ft 392 kts 275°
2026-04-20 12:43 26.15621 36.66861 29818 ft 392 kts 275°
2026-04-20 12:43 26.16381 36.60842 29818 ft 392 kts 275°
2026-04-20 12:44 26.17140 36.54827 29817 ft 392 kts 275°
2026-04-20 12:44 26.18664 36.49006 29818 ft 406 kts 294°
2026-04-20 12:45 26.22218 36.44006 29815 ft 414 kts 305°
2026-04-20 12:45 26.26208 36.39297 29817 ft 416 kts 305°
2026-04-20 12:46 26.30186 36.34671 29817 ft 416 kts 306°
2026-04-20 12:46 26.34202 36.30021 29818 ft 416 kts 306°
2026-04-20 12:47 26.38219 36.25370 29818 ft 416 kts 306°
2026-04-20 12:47 26.42240 36.20719 29819 ft 417 kts 306°
2026-04-20 12:48 26.46274 36.16081 29819 ft 416 kts 306°
2026-04-20 12:48 26.50295 36.11434 29820 ft 416 kts 306°
2026-04-20 12:49 26.54309 36.06784 29822 ft 415 kts 306°
2026-04-20 12:49 26.58328 36.02140 29821 ft 416 kts 306°
2026-04-20 12:50 26.62337 35.97491 29822 ft 415 kts 306°
2026-04-20 12:50 26.66334 35.92836 29822 ft 415 kts 306°
2026-04-20 12:51 26.70327 35.88178 29822 ft 415 kts 306°
2026-04-20 12:51 26.74317 35.83520 29822 ft 415 kts 306°
2026-04-20 12:52 26.78307 35.78862 29821 ft 415 kts 306°
2026-04-20 12:52 26.82286 35.74195 29820 ft 415 kts 306°
2026-04-20 12:53 26.86278 35.69533 29819 ft 414 kts 306°
2026-04-20 12:53 26.90262 35.64866 29817 ft 414 kts 305°
2026-04-20 12:54 26.94231 35.60206 29816 ft 414 kts 305°
2026-04-20 12:54 26.98202 35.55539 29813 ft 413 kts 305°
2026-04-20 12:55 27.02170 35.50870 29811 ft 413 kts 305°
2026-04-20 12:55 27.06153 35.46219 29808 ft 413 kts 305°
2026-04-20 12:56 27.10130 35.41553 29805 ft 413 kts 305°
2026-04-20 12:56 27.14096 35.36885 29802 ft 413 kts 305°
2026-04-20 12:57 27.18060 35.32212 29803 ft 413 kts 305°
2026-04-20 12:57 27.22021 35.27536 29801 ft 413 kts 305°
2026-04-20 12:58 27.25979 35.22857 29800 ft 413 kts 305°
2026-04-20 12:58 27.29945 35.18175 29799 ft 414 kts 306°
2026-04-20 12:59 27.33915 35.13489 29798 ft 413 kts 305°
2026-04-20 12:59 27.37870 35.08794 29798 ft 413 kts 305°
2026-04-20 13:00 27.41822 35.04092 29798 ft 413 kts 305°
2026-04-20 13:00 27.45771 34.99390 29799 ft 413 kts 305°
2026-04-20 13:01 27.49719 34.94688 29800 ft 413 kts 305°
2026-04-20 13:01 27.53760 34.90060 29803 ft 416 kts 308°
2026-04-20 13:02 27.57993 34.85664 29805 ft 417 kts 309°
2026-04-20 13:02 27.62236 34.81214 29809 ft 416 kts 308°
2026-04-20 13:03 27.66463 34.76746 29813 ft 416 kts 308°
2026-04-20 13:03 27.70684 34.72269 29819 ft 417 kts 308°
2026-04-20 13:04 27.74928 34.67804 29825 ft 417 kts 308°
2026-04-20 13:04 27.79155 34.63325 29831 ft 416 kts 308°
2026-04-20 13:05 27.83368 34.58839 29836 ft 416 kts 308°
2026-04-20 13:05 27.87578 34.54347 29840 ft 416 kts 308°
2026-04-20 13:06 27.91793 34.49847 29844 ft 417 kts 308°
2026-04-20 13:06 27.96014 34.45342 29845 ft 417 kts 308°
2026-04-20 13:07 28.00186 34.40782 29846 ft 414 kts 304°
2026-04-20 13:07 28.03895 34.35837 29847 ft 411 kts 301°
2026-04-20 13:08 28.07461 34.30781 29848 ft 411 kts 301°
2026-04-20 13:08 28.11049 34.25755 29850 ft 410 kts 301°
2026-04-20 13:09 28.14651 34.20734 29853 ft 411 kts 301°
2026-04-20 13:09 28.18231 34.15749 29856 ft 411 kts 301°
2026-04-20 13:10 28.21862 34.10698 29861 ft 411 kts 302°
2026-04-20 13:10 28.25488 34.05691 29865 ft 411 kts 301°
2026-04-20 13:11 28.29098 34.00676 29868 ft 411 kts 301°
2026-04-20 13:11 28.32687 33.95676 29871 ft 411 kts 301°
2026-04-20 13:12 28.36308 33.90657 29873 ft 410 kts 302°
2026-04-20 13:12 28.39905 33.85630 29874 ft 411 kts 302°
2026-04-20 13:13 28.43500 33.80589 29875 ft 410 kts 302°
2026-04-20 13:13 28.47091 33.75549 29876 ft 411 kts 302°
2026-04-20 13:14 28.50687 33.70495 29876 ft 411 kts 302°
2026-04-20 13:14 28.54278 33.65447 29877 ft 411 kts 302°
2026-04-20 13:15 28.57871 33.60398 29882 ft 410 kts 302°
2026-04-20 13:15 28.61462 33.55334 29884 ft 411 kts 302°
2026-04-20 13:16 28.65047 33.50274 29886 ft 410 kts 302°
2026-04-20 13:16 28.68632 33.45216 29888 ft 410 kts 302°
2026-04-20 13:17 28.72211 33.40154 29891 ft 411 kts 302°
2026-04-20 13:17 28.75789 33.35086 29896 ft 410 kts 302°
2026-04-20 13:18 28.79356 33.30026 29903 ft 410 kts 302°
2026-04-20 13:18 28.82931 33.24951 29908 ft 410 kts 302°
2026-04-20 13:19 28.86517 33.19888 29914 ft 411 kts 302°
2026-04-20 13:19 28.90103 33.14821 29918 ft 410 kts 302°
2026-04-20 13:20 28.93676 33.09750 29923 ft 410 kts 302°
2026-04-20 13:20 28.97248 33.04669 29928 ft 411 kts 302°
2026-04-20 13:21 29.00818 32.99583 29933 ft 410 kts 302°
2026-04-20 13:21 29.04380 32.94500 29939 ft 409 kts 302°
2026-04-20 13:22 29.07942 32.89412 29944 ft 410 kts 302°
2026-04-20 13:22 29.11519 32.84329 29954 ft 410 kts 302°
2026-04-20 13:23 29.15078 32.79230 29961 ft 410 kts 302°
2026-04-20 13:23 29.18633 32.74121 29968 ft 410 kts 302°
2026-04-20 13:24 29.22181 32.69015 29973 ft 410 kts 302°
2026-04-20 13:24 29.25726 32.63909 29971 ft 410 kts 303°
2026-04-20 13:25 29.29276 32.58788 29966 ft 410 kts 302°
2026-04-20 13:25 29.32772 32.53687 29969 ft 410 kts 302°
2026-04-20 13:26 29.36292 32.48543 29972 ft 410 kts 302°
2026-04-20 13:26 29.39806 32.43400 29975 ft 410 kts 302°
2026-04-20 13:27 29.43323 32.38246 29978 ft 411 kts 302°
2026-04-20 13:27 29.46839 32.33087 29980 ft 410 kts 302°
2026-04-20 13:28 29.50356 32.27939 29982 ft 410 kts 303°
2026-04-20 13:28 29.53319 32.23624 29982 ft 410 kts 303°
2026-04-20 13:29 29.56814 32.18503 29981 ft 410 kts 303°
2026-04-20 13:29 29.60371 32.13305 29982 ft 411 kts 303°
2026-04-20 13:30 29.63891 32.08130 29984 ft 411 kts 303°
2026-04-20 13:30 29.67398 32.02951 29985 ft 410 kts 303°
2026-04-20 13:31 29.70896 31.97772 29987 ft 410 kts 303°
2026-04-20 13:31 29.74400 31.92581 29988 ft 411 kts 303°
2026-04-20 13:32 29.77904 31.87390 29989 ft 411 kts 303°
2026-04-20 13:32 29.81333 31.82140 29991 ft 410 kts 301°
2026-04-20 13:33 29.84723 31.76859 29993 ft 410 kts 302°
2026-04-20 13:33 29.88112 31.71580 29993 ft 410 kts 302°
2026-04-20 13:34 29.91504 31.66298 29993 ft 409 kts 301°
2026-04-20 13:34 29.94913 31.61043 29993 ft 409 kts 302°
2026-04-20 13:35 29.98310 31.55776 29994 ft 409 kts 302°
2026-04-20 13:35 30.01860 31.50248 29994 ft 410 kts 302°
2026-04-20 13:36 30.05258 31.44951 29994 ft 411 kts 302°
2026-04-20 13:36 30.08710 31.39688 29994 ft 413 kts 305°
2026-04-20 13:37 30.12762 31.34946 29994 ft 416 kts 311°
2026-04-20 13:37 30.17049 31.30367 29994 ft 417 kts 311°
2026-04-20 13:38 30.21298 31.25807 29994 ft 417 kts 311°
2026-04-20 13:38 30.25538 31.21243 29993 ft 417 kts 311°
2026-04-20 13:39 30.29781 31.16668 29993 ft 417 kts 311°
2026-04-20 13:39 30.34052 31.12057 29993 ft 417 kts 311°
2026-04-20 13:40 30.38316 31.07491 29993 ft 417 kts 311°
2026-04-20 13:40 30.42541 31.02944 29993 ft 417 kts 311°
2026-04-20 13:41 30.46786 30.98361 29994 ft 417 kts 311°
2026-04-20 13:41 30.51026 30.93774 29994 ft 416 kts 311°
2026-04-20 13:42 30.55289 30.89154 29994 ft 417 kts 311°
2026-04-20 13:42 30.61644 30.82255 29999 ft 417 kts 311°
2026-04-20 13:43 30.65877 30.77651 30001 ft 417 kts 311°
2026-04-20 13:43 30.70113 30.73039 30003 ft 417 kts 311°
2026-04-20 13:44 30.74373 30.68396 30004 ft 417 kts 311°
2026-04-20 13:44 30.78603 30.63778 30006 ft 417 kts 311°
2026-04-20 13:45 30.82835 30.59156 30008 ft 418 kts 311°
2026-04-20 13:45 30.87073 30.54532 30010 ft 418 kts 311°
2026-04-20 13:46 30.91311 30.49902 30013 ft 417 kts 311°
2026-04-20 13:46 30.95536 30.45259 30016 ft 418 kts 311°
2026-04-20 13:47 30.99762 30.40606 30020 ft 418 kts 311°
2026-04-20 13:47 31.03360 30.36641 30021 ft 418 kts 311°
2026-04-20 13:48 31.07418 30.31874 30021 ft 414 kts 303°
2026-04-20 13:48 31.10162 30.25979 30023 ft 408 kts 290°
2026-04-20 13:49 31.12126 30.19674 30023 ft 407 kts 285°
2026-04-20 13:49 31.13836 30.13380 30023 ft 408 kts 285°
2026-04-20 13:50 31.15549 30.07072 30023 ft 407 kts 285°
2026-04-20 13:50 31.17263 30.00762 30024 ft 407 kts 285°
2026-04-20 13:51 31.19484 29.94665 30023 ft 411 kts 297°
2026-04-20 13:51 31.22613 29.89065 30023 ft 413 kts 302°
2026-04-20 13:52 31.25978 29.83619 30024 ft 413 kts 302°
2026-04-20 13:52 31.29355 29.78181 30025 ft 413 kts 302°
2026-04-20 13:53 31.32731 29.72744 30026 ft 413 kts 302°
2026-04-20 13:53 31.36113 29.67292 30026 ft 414 kts 302°
2026-04-20 13:54 31.39499 29.61843 30027 ft 414 kts 303°
2026-04-20 13:54 31.42918 29.56418 30029 ft 414 kts 302°
2026-04-20 13:55 31.46303 29.50962 30031 ft 414 kts 302°
2026-04-20 13:55 31.49674 29.45499 30033 ft 414 kts 302°
2026-04-20 13:56 31.53044 29.40029 30035 ft 414 kts 302°
2026-04-20 13:56 31.56389 29.34595 30037 ft 414 kts 302°
2026-04-20 13:57 31.59755 29.29125 30039 ft 414 kts 302°
2026-04-20 13:57 31.63108 29.23647 30041 ft 413 kts 302°
2026-04-20 13:58 31.66446 29.18161 30043 ft 413 kts 302°
2026-04-20 13:58 31.69777 29.12677 30045 ft 413 kts 302°
2026-04-20 13:59 31.73113 29.07181 30047 ft 413 kts 302°
2026-04-20 13:59 31.76453 29.01697 30048 ft 412 kts 302°
2026-04-20 14:00 31.79792 28.96205 30049 ft 413 kts 302°
2026-04-20 14:00 31.83128 28.90704 30050 ft 413 kts 302°
2026-04-20 14:01 31.86457 28.85204 30051 ft 413 kts 302°
2026-04-20 14:01 31.89780 28.79707 30051 ft 412 kts 302°
2026-04-20 14:02 31.93107 28.74196 30052 ft 413 kts 302°
2026-04-20 14:02 31.96462 28.68704 30052 ft 413 kts 302°
2026-04-20 14:03 31.99779 28.63239 30051 ft 413 kts 302°
2026-04-20 14:03 32.03114 28.57719 30052 ft 414 kts 302°
2026-04-20 14:04 32.06446 28.52192 30051 ft 413 kts 302°
2026-04-20 14:04 32.09771 28.46665 30051 ft 413 kts 302°
2026-04-20 14:05 32.13092 28.41135 30069 ft 413 kts 302°
2026-04-20 14:05 32.16410 28.35601 30081 ft 413 kts 302°
2026-04-20 14:06 32.19727 28.30062 30084 ft 413 kts 302°
2026-04-20 14:06 32.23042 28.24517 30084 ft 413 kts 302°
2026-04-20 14:07 32.26352 28.18973 30084 ft 413 kts 302°
2026-04-20 14:07 32.29660 28.13423 30084 ft 413 kts 302°
2026-04-20 14:08 32.32965 28.07870 30083 ft 413 kts 302°
2026-04-20 14:08 32.36269 28.02312 30083 ft 413 kts 302°
2026-04-20 14:09 32.39569 27.96751 30083 ft 413 kts 302°
2026-04-20 14:09 32.42850 27.91216 30083 ft 413 kts 302°
2026-04-20 14:10 32.46148 27.85642 30082 ft 413 kts 302°
2026-04-20 14:10 32.49441 27.80069 30082 ft 413 kts 302°
2026-04-20 14:11 32.52733 27.74492 30081 ft 413 kts 302°
2026-04-20 14:11 32.56034 27.68933 30080 ft 413 kts 302°
2026-04-20 14:12 32.59318 27.63347 30079 ft 413 kts 302°
2026-04-20 14:12 32.62594 27.57753 30078 ft 413 kts 302°
2026-04-20 14:13 32.65869 27.52152 30077 ft 413 kts 302°
2026-04-20 14:13 32.69140 27.46559 30076 ft 413 kts 302°
2026-04-20 14:14 32.72409 27.40960 30074 ft 412 kts 302°
2026-04-20 14:14 32.75678 27.35355 30073 ft 413 kts 302°
2026-04-20 14:15 32.78945 27.29740 30072 ft 413 kts 302°
2026-04-20 14:15 32.82238 27.24150 30070 ft 413 kts 302°
2026-04-20 14:16 32.85503 27.18536 30067 ft 412 kts 302°
2026-04-20 14:16 32.88757 27.12915 30070 ft 412 kts 302°
2026-04-20 14:17 32.91985 27.07327 30076 ft 413 kts 302°
2026-04-20 14:17 32.95239 27.01692 30075 ft 413 kts 302°
2026-04-20 14:18 32.98486 26.96056 30073 ft 413 kts 302°
2026-04-20 14:18 33.01724 26.90412 30072 ft 412 kts 302°
2026-04-20 14:19 33.04952 26.84764 30071 ft 413 kts 302°
2026-04-20 14:19 33.08180 26.79103 30069 ft 413 kts 302°
2026-04-20 14:20 33.11408 26.73436 30067 ft 413 kts 302°
2026-04-20 14:20 33.14628 26.67767 30066 ft 412 kts 302°
2026-04-20 14:21 33.17858 26.62100 30065 ft 413 kts 303°
2026-04-20 14:21 33.21111 26.56441 30063 ft 413 kts 303°
2026-04-20 14:22 33.24344 26.50772 30062 ft 413 kts 303°
2026-04-20 14:22 33.27574 26.45088 30061 ft 413 kts 303°
2026-04-20 14:23 33.30798 26.39398 30060 ft 413 kts 303°
2026-04-20 14:23 33.34019 26.33703 30059 ft 414 kts 303°
2026-04-20 14:24 33.37222 26.28034 30057 ft 414 kts 303°
2026-04-20 14:24 33.40438 26.22326 30056 ft 414 kts 303°
2026-04-20 14:25 33.43657 26.16604 30056 ft 414 kts 303°
2026-04-20 14:25 33.46871 26.10884 30055 ft 414 kts 303°
2026-04-20 14:26 33.50082 26.05161 30053 ft 414 kts 303°
2026-04-20 14:26 33.53297 25.99421 30053 ft 415 kts 303°
2026-04-20 14:27 33.56507 25.93681 30053 ft 414 kts 303°
2026-04-20 14:27 33.59713 25.87939 30052 ft 414 kts 303°
2026-04-20 14:28 33.62915 25.82195 30052 ft 414 kts 303°
2026-04-20 14:28 33.65576 25.77416 30051 ft 414 kts 303°
2026-04-20 14:29 33.68776 25.71659 30051 ft 414 kts 303°
2026-04-20 14:29 33.71972 25.65900 30051 ft 414 kts 303°
2026-04-20 14:30 33.75163 25.60142 30051 ft 414 kts 303°
2026-04-20 14:30 33.78353 25.54376 30050 ft 414 kts 303°
2026-04-20 14:31 33.81540 25.48606 30050 ft 414 kts 303°
2026-04-20 14:31 33.84737 25.42857 30050 ft 413 kts 303°
2026-04-20 14:32 33.87914 25.37092 30050 ft 413 kts 303°
2026-04-20 14:32 33.91083 25.31310 30050 ft 413 kts 303°
2026-04-20 14:33 33.94224 25.25568 30050 ft 413 kts 303°
2026-04-20 14:33 33.97381 25.19794 30050 ft 413 kts 303°
2026-04-20 14:34 34.00537 25.14020 30057 ft 412 kts 303°
2026-04-20 14:34 34.03865 25.08410 30062 ft 411 kts 306°
2026-04-20 14:35 34.07247 25.02857 30062 ft 411 kts 306°
2026-04-20 14:35 34.10608 24.97280 30061 ft 411 kts 306°
2026-04-20 14:36 34.13949 24.91701 30061 ft 410 kts 305°
2026-04-20 14:36 34.17282 24.86117 30060 ft 410 kts 305°
2026-04-20 14:37 34.20615 24.80532 30060 ft 410 kts 306°
2026-04-20 14:37 34.23973 24.74965 30060 ft 410 kts 306°
2026-04-20 14:38 34.27318 24.69382 30059 ft 410 kts 305°
2026-04-20 14:38 34.30650 24.63793 30059 ft 409 kts 305°
2026-04-20 14:39 34.33975 24.58209 30058 ft 409 kts 305°
2026-04-20 14:39 34.37289 24.52619 30058 ft 409 kts 305°
2026-04-20 14:40 34.40602 24.47023 30058 ft 409 kts 305°
2026-04-20 14:40 34.43913 24.41422 30058 ft 409 kts 305°
2026-04-20 14:41 34.47222 24.35814 30058 ft 409 kts 305°
2026-04-20 14:41 34.50527 24.30207 30058 ft 409 kts 305°
2026-04-20 14:42 34.53828 24.24596 30058 ft 409 kts 305°
2026-04-20 14:42 34.57128 24.18978 30057 ft 409 kts 305°
2026-04-20 14:43 34.60424 24.13360 30060 ft 409 kts 305°
2026-04-20 14:43 34.63695 24.07773 30064 ft 409 kts 305°
2026-04-20 14:44 34.66984 24.02148 30064 ft 408 kts 305°
2026-04-20 14:44 34.70266 23.96526 30064 ft 408 kts 305°
2026-04-20 14:45 34.73545 23.90901 30063 ft 408 kts 305°
2026-04-20 14:45 34.76820 23.85272 30063 ft 408 kts 305°
2026-04-20 14:46 34.80094 23.79637 30063 ft 408 kts 305°
2026-04-20 14:46 34.83359 23.74007 30063 ft 407 kts 304°
2026-04-20 14:47 34.86621 23.68376 30063 ft 407 kts 304°
2026-04-20 14:48 34.91506 23.59924 30063 ft 407 kts 304°
2026-04-20 14:48 34.94757 23.54288 30063 ft 407 kts 304°
2026-04-20 14:49 34.98011 23.48638 30064 ft 407 kts 304°
2026-04-20 14:49 35.01258 23.42991 30064 ft 407 kts 304°
2026-04-20 14:50 35.04498 23.37346 30065 ft 406 kts 304°
2026-04-20 14:50 35.07733 23.31703 30065 ft 406 kts 304°
2026-04-20 14:51 35.10965 23.26055 30066 ft 406 kts 304°
2026-04-20 14:51 35.14196 23.20405 30067 ft 406 kts 304°
2026-04-20 14:52 35.17422 23.14746 30068 ft 406 kts 304°
2026-04-20 14:52 35.20624 23.09122 30068 ft 406 kts 304°
2026-04-20 14:53 35.23845 23.03457 30069 ft 406 kts 304°
2026-04-20 14:53 35.27065 22.97786 30076 ft 406 kts 304°
2026-04-20 14:54 35.30280 22.92113 30080 ft 406 kts 304°
2026-04-20 14:54 35.33495 22.86436 30077 ft 406 kts 304°
2026-04-20 14:55 35.36704 22.80753 30071 ft 406 kts 304°
2026-04-20 14:55 35.39912 22.75064 30070 ft 406 kts 304°
2026-04-20 14:56 35.43115 22.69374 30070 ft 406 kts 304°
2026-04-20 14:56 35.46320 22.63676 30070 ft 406 kts 304°
2026-04-20 14:57 35.49520 22.57972 30070 ft 406 kts 304°
2026-04-20 14:57 35.52715 22.52270 30070 ft 406 kts 304°
2026-04-20 14:58 35.55911 22.46556 30070 ft 406 kts 304°
2026-04-20 14:58 35.59102 22.40841 30068 ft 406 kts 304°
2026-04-20 14:59 35.62289 22.35126 30067 ft 406 kts 304°
2026-04-20 14:59 35.65472 22.29407 30066 ft 405 kts 304°
2026-04-20 15:00 35.68648 22.23694 30066 ft 405 kts 304°
2026-04-20 15:00 35.71820 22.17976 30065 ft 405 kts 304°
2026-04-20 15:01 35.74968 22.12293 30065 ft 405 kts 304°
2026-04-20 15:01 35.78136 22.06565 30064 ft 405 kts 304°
2026-04-20 15:02 35.81300 22.00834 30063 ft 404 kts 304°
2026-04-20 15:02 35.84459 21.95101 30073 ft 404 kts 304°
2026-04-20 15:03 35.87638 21.89379 30075 ft 404 kts 304°
2026-04-20 15:03 35.90796 21.83636 30056 ft 404 kts 304°
2026-04-20 15:04 35.93942 21.77881 30044 ft 404 kts 304°
2026-04-20 15:04 35.97085 21.72122 30040 ft 404 kts 304°
2026-04-20 15:05 36.00227 21.66358 30040 ft 405 kts 304°
2026-04-20 15:05 36.03363 21.60600 30039 ft 403 kts 303°
2026-04-20 15:06 36.06484 21.54836 30039 ft 403 kts 303°
2026-04-20 15:06 36.09592 21.49111 30039 ft 404 kts 303°
2026-04-20 15:07 36.12711 21.43342 30039 ft 403 kts 303°
2026-04-20 15:07 36.15824 21.37568 30039 ft 403 kts 303°
2026-04-20 15:08 36.18932 21.31797 30038 ft 403 kts 303°
2026-04-20 15:08 36.22032 21.26021 30039 ft 403 kts 303°
2026-04-20 15:09 36.25165 21.20272 30039 ft 403 kts 303°
2026-04-20 15:09 36.28287 21.14508 30040 ft 403 kts 303°
2026-04-20 15:10 36.31396 21.08737 30044 ft 402 kts 303°
2026-04-20 15:10 36.34491 21.02970 30048 ft 402 kts 303°
2026-04-20 15:11 36.37583 20.97196 30048 ft 402 kts 303°
2026-04-20 15:11 36.40670 20.91419 30048 ft 402 kts 303°
2026-04-20 15:12 36.43757 20.85631 30048 ft 402 kts 303°
2026-04-20 15:12 36.46840 20.79840 30065 ft 402 kts 303°
2026-04-20 15:13 36.49919 20.74047 30071 ft 402 kts 303°
2026-04-20 15:13 36.52996 20.68248 30071 ft 402 kts 303°
2026-04-20 15:14 36.56050 20.62484 30070 ft 402 kts 303°
2026-04-20 15:14 36.59122 20.56675 30070 ft 402 kts 303°
2026-04-20 15:15 36.62190 20.50862 30070 ft 402 kts 302°
2026-04-20 15:15 36.65256 20.45045 30062 ft 402 kts 302°
2026-04-20 15:16 36.68318 20.39224 30059 ft 402 kts 302°
2026-04-20 15:16 36.71377 20.33399 30059 ft 402 kts 302°
2026-04-20 15:17 36.74434 20.27567 30058 ft 402 kts 302°
2026-04-20 15:17 36.77488 20.21733 30056 ft 402 kts 302°
2026-04-20 15:18 36.80533 20.15905 30056 ft 401 kts 302°
2026-04-20 15:18 36.83573 20.10076 30055 ft 401 kts 302°
2026-04-20 15:19 36.86096 20.05231 30055 ft 401 kts 302°
2026-04-20 15:19 36.89132 19.99392 30055 ft 401 kts 302°
2026-04-20 15:20 36.92169 19.93541 30055 ft 402 kts 302°
2026-04-20 15:20 36.95205 19.87681 30055 ft 401 kts 302°
2026-04-20 15:21 36.98232 19.81830 30055 ft 401 kts 302°
2026-04-20 15:21 37.01256 19.75971 30055 ft 401 kts 302°
2026-04-20 15:22 37.04274 19.70114 30068 ft 400 kts 302°
2026-04-20 15:22 37.07289 19.64254 30073 ft 400 kts 302°
2026-04-20 15:23 37.10303 19.58386 30069 ft 400 kts 302°
2026-04-20 15:23 37.13311 19.52517 30061 ft 400 kts 302°
2026-04-20 15:24 37.16317 19.46644 30060 ft 400 kts 302°
2026-04-20 15:24 37.19301 19.40802 30055 ft 401 kts 302°
2026-04-20 15:25 37.22312 19.34897 30042 ft 402 kts 302°
2026-04-20 15:25 37.25332 19.29039 30038 ft 402 kts 302°
2026-04-20 15:26 37.27958 19.23870 30038 ft 401 kts 302°
2026-04-20 15:26 37.30947 19.17959 30037 ft 401 kts 302°
2026-04-20 15:27 37.33931 19.12045 30037 ft 401 kts 302°
2026-04-20 15:27 37.36915 19.06125 30036 ft 401 kts 302°
2026-04-20 15:28 37.39913 19.00213 30035 ft 401 kts 304°
2026-04-20 15:28 37.43274 18.94627 30035 ft 400 kts 308°
2026-04-20 15:29 37.46787 18.89192 30031 ft 400 kts 308°
2026-04-20 15:29 37.50276 18.83732 30030 ft 400 kts 308°
2026-04-20 15:30 37.53749 18.78254 30030 ft 399 kts 308°
2026-04-20 15:30 37.57205 18.72777 30029 ft 399 kts 308°
2026-04-20 15:31 37.60655 18.67291 30028 ft 399 kts 308°
2026-04-20 15:31 37.64101 18.61876 30027 ft 398 kts 308°
2026-04-20 15:32 37.67564 18.56417 30026 ft 398 kts 308°
2026-04-20 15:32 37.71012 18.50951 30025 ft 397 kts 308°
2026-04-20 15:33 37.74449 18.45482 30024 ft 397 kts 308°
2026-04-20 15:33 37.77882 18.40005 30023 ft 397 kts 308°
2026-04-20 15:34 37.81302 18.34537 30028 ft 397 kts 308°
2026-04-20 15:34 37.84721 18.29061 30027 ft 396 kts 308°
2026-04-20 15:35 37.88136 18.23580 30026 ft 396 kts 308°
2026-04-20 15:35 37.91541 18.18106 30024 ft 396 kts 308°
2026-04-20 15:36 37.94942 18.12630 30022 ft 396 kts 308°
2026-04-20 15:36 37.98343 18.07144 30012 ft 396 kts 308°
2026-04-20 15:37 38.01739 18.01656 30008 ft 396 kts 308°
2026-04-20 15:37 38.05132 17.96165 30007 ft 396 kts 308°
2026-04-20 15:38 38.08525 17.90665 30006 ft 396 kts 308°
2026-04-20 15:38 38.11912 17.85164 30007 ft 396 kts 307°
2026-04-20 15:39 38.15300 17.79652 30006 ft 396 kts 307°
2026-04-20 15:39 38.18690 17.74128 30007 ft 396 kts 307°
2026-04-20 15:40 38.22078 17.68599 30006 ft 396 kts 307°
2026-04-20 15:40 38.25468 17.63056 30005 ft 397 kts 307°
2026-04-20 15:41 38.28859 17.57502 30004 ft 397 kts 307°
2026-04-20 15:41 38.32228 17.51975 30003 ft 398 kts 307°
2026-04-20 15:42 38.35622 17.46398 30003 ft 399 kts 307°
2026-04-20 15:42 38.39038 17.40774 30002 ft 399 kts 307°
2026-04-20 15:43 38.42443 17.35160 30001 ft 400 kts 307°
2026-04-20 15:43 38.45820 17.29582 30000 ft 401 kts 307°
2026-04-20 15:44 38.49242 17.23919 29999 ft 400 kts 307°
2026-04-20 15:44 38.52626 17.18310 29999 ft 401 kts 307°
2026-04-20 15:45 38.56028 17.12660 29998 ft 401 kts 307°
2026-04-20 15:45 38.59436 17.06991 29998 ft 402 kts 307°
2026-04-20 15:46 38.62841 17.01318 30007 ft 402 kts 307°
2026-04-20 15:46 38.66244 16.95636 30010 ft 403 kts 307°
2026-04-20 15:47 38.69673 16.89904 30011 ft 403 kts 307°
2026-04-20 15:47 38.73075 16.84204 30012 ft 403 kts 307°
2026-04-20 15:48 38.76474 16.78500 30014 ft 403 kts 307°
2026-04-20 15:48 38.79872 16.72787 30018 ft 403 kts 307°
2026-04-20 15:49 38.83272 16.67062 30023 ft 404 kts 307°
2026-04-20 15:49 38.86668 16.61332 30029 ft 403 kts 307°
2026-04-20 15:50 38.90040 16.55634 30041 ft 403 kts 307°
2026-04-20 15:50 38.93430 16.49893 30054 ft 403 kts 307°
2026-04-20 15:51 38.96817 16.44150 30062 ft 403 kts 307°
2026-04-20 15:51 39.00202 16.38397 30064 ft 403 kts 307°
2026-04-20 15:52 39.03582 16.32643 30068 ft 403 kts 307°
2026-04-20 15:52 39.06961 16.26881 30075 ft 403 kts 307°
2026-04-20 15:53 39.12020 16.18235 30088 ft 403 kts 307°
2026-04-20 15:53 39.15390 16.12462 30096 ft 403 kts 307°
2026-04-20 15:54 39.18753 16.06693 30102 ft 403 kts 307°
2026-04-20 15:54 39.22116 16.00910 30103 ft 403 kts 307°
2026-04-20 15:55 39.25475 15.95125 30103 ft 403 kts 307°
2026-04-20 15:55 39.28832 15.89334 30102 ft 403 kts 307°
2026-04-20 15:56 39.32184 15.83541 30101 ft 403 kts 306°
2026-04-20 15:56 39.35533 15.77741 30112 ft 403 kts 306°
2026-04-20 15:57 39.38313 15.72918 30111 ft 403 kts 306°
2026-04-20 15:57 39.41657 15.67109 30107 ft 403 kts 306°
2026-04-20 15:58 39.45539 15.60350 30107 ft 403 kts 306°
2026-04-20 15:58 39.48335 15.55474 30104 ft 403 kts 306°
2026-04-20 15:59 39.51670 15.49648 30099 ft 403 kts 306°
2026-04-20 15:59 39.55002 15.43816 30092 ft 403 kts 306°
2026-04-20 16:00 39.58307 15.38021 30086 ft 403 kts 306°
2026-04-20 16:00 39.61635 15.32176 30081 ft 404 kts 306°
2026-04-20 16:01 39.64966 15.26314 30077 ft 403 kts 306°
2026-04-20 16:01 39.68293 15.20448 30074 ft 403 kts 306°
2026-04-20 16:02 39.71617 15.14576 30080 ft 403 kts 306°
2026-04-20 16:02 39.74937 15.08701 30078 ft 403 kts 306°
2026-04-20 16:03 39.78257 15.02815 30074 ft 403 kts 306°
2026-04-20 16:03 39.81571 14.96928 30071 ft 403 kts 306°
2026-04-20 16:04 39.84884 14.91033 30068 ft 404 kts 306°
2026-04-20 16:04 39.88201 14.85119 30061 ft 404 kts 306°
2026-04-20 16:05 39.91511 14.79206 30058 ft 404 kts 306°
2026-04-20 16:05 39.94824 14.73278 30056 ft 404 kts 305°
2026-04-20 16:06 39.98132 14.67348 30054 ft 404 kts 305°
2026-04-20 16:06 40.01433 14.61417 30053 ft 404 kts 305°
2026-04-20 16:07 40.04734 14.55476 30051 ft 404 kts 305°
2026-04-20 16:07 40.08030 14.49533 30050 ft 404 kts 305°
2026-04-20 16:08 40.11324 14.43582 30049 ft 404 kts 305°
2026-04-20 16:08 40.14615 14.37626 30047 ft 404 kts 305°
2026-04-20 16:09 40.17881 14.31705 30046 ft 404 kts 305°
2026-04-20 16:09 40.21167 14.25734 30038 ft 404 kts 305°
2026-04-20 16:10 40.24446 14.19765 30031 ft 404 kts 305°
2026-04-20 16:10 40.27724 14.13786 30030 ft 404 kts 305°
2026-04-20 16:11 40.31001 14.07799 30029 ft 404 kts 305°
2026-04-20 16:11 40.34272 14.01810 30031 ft 404 kts 304°
2026-04-20 16:12 40.37541 13.95814 30030 ft 404 kts 304°
2026-04-20 16:12 40.40807 13.89812 30030 ft 404 kts 304°
2026-04-20 16:13 40.44068 13.83807 30030 ft 404 kts 304°
2026-04-20 16:13 40.47329 13.77797 30029 ft 404 kts 304°
2026-04-20 16:14 40.50585 13.71775 30029 ft 404 kts 304°
2026-04-20 16:14 40.53835 13.65754 30028 ft 404 kts 304°
2026-04-20 16:15 40.57085 13.59723 30028 ft 404 kts 304°
2026-04-20 16:15 40.60330 13.53692 30028 ft 404 kts 304°
2026-04-20 16:16 40.63575 13.47653 30028 ft 404 kts 304°
2026-04-20 16:16 40.66812 13.41606 30028 ft 404 kts 304°
2026-04-20 16:17 40.70050 13.35548 30028 ft 404 kts 304°
2026-04-20 16:17 40.73291 13.29497 30028 ft 404 kts 304°
2026-04-20 16:18 40.76540 13.23451 30019 ft 404 kts 304°
2026-04-20 16:18 40.79764 13.17377 30015 ft 404 kts 304°
2026-04-20 16:19 40.82978 13.11296 30014 ft 404 kts 304°
2026-04-20 16:19 40.86192 13.05204 30013 ft 404 kts 304°
2026-04-20 16:20 40.89403 12.99115 30012 ft 404 kts 304°
2026-04-20 16:20 40.92726 12.93122 30010 ft 404 kts 308°
2026-04-20 16:21 40.96354 12.87433 30005 ft 405 kts 309°
2026-04-20 16:21 40.99993 12.81749 29998 ft 405 kts 309°
2026-04-20 16:22 41.03611 12.76041 29998 ft 405 kts 308°
2026-04-20 16:22 41.07219 12.70317 29998 ft 405 kts 308°
2026-04-20 16:23 41.10820 12.64584 29997 ft 405 kts 308°
2026-04-20 16:23 41.14407 12.58892 29996 ft 405 kts 309°
2026-04-20 16:24 41.18036 12.53181 29995 ft 405 kts 308°
2026-04-20 16:24 41.21648 12.47451 29995 ft 405 kts 308°
2026-04-20 16:25 41.25251 12.41706 29995 ft 405 kts 308°
2026-04-20 16:25 41.28849 12.35952 29995 ft 405 kts 308°
2026-04-20 16:26 41.32438 12.30197 29995 ft 404 kts 308°
2026-04-20 16:26 41.36019 12.24444 29994 ft 404 kts 308°
2026-04-20 16:27 41.39594 12.18686 29994 ft 404 kts 308°
2026-04-20 16:27 41.43169 12.12919 29994 ft 404 kts 308°
2026-04-20 16:28 41.46739 12.07149 29994 ft 403 kts 308°
2026-04-20 16:28 41.50308 12.01367 29992 ft 403 kts 308°
2026-04-20 16:29 41.53874 11.95581 29992 ft 404 kts 308°
2026-04-20 16:29 41.57437 11.89789 29991 ft 404 kts 308°
2026-04-20 16:30 41.60996 11.83991 29990 ft 404 kts 308°
2026-04-20 16:30 41.64554 11.78184 29990 ft 404 kts 308°
2026-04-20 16:31 41.68108 11.72373 29990 ft 404 kts 308°
2026-04-20 16:31 41.71658 11.66556 29989 ft 404 kts 308°
2026-04-20 16:32 41.75205 11.60733 29987 ft 403 kts 308°
2026-04-20 16:32 41.78751 11.54902 29986 ft 403 kts 308°
2026-04-20 16:33 41.82293 11.49065 29983 ft 405 kts 308°
2026-04-20 16:33 41.85817 11.43245 29982 ft 404 kts 308°
2026-04-20 16:34 41.89360 11.37385 29980 ft 404 kts 307°
2026-04-20 16:34 41.92901 11.31515 29978 ft 405 kts 307°
2026-04-20 16:35 41.96445 11.25629 29973 ft 405 kts 307°
2026-04-20 16:35 41.99990 11.19731 29970 ft 405 kts 307°
2026-04-20 16:36 42.03522 11.13841 29968 ft 404 kts 307°
2026-04-20 16:36 42.07050 11.07947 29965 ft 404 kts 307°
2026-04-20 16:37 42.10574 11.02047 29957 ft 405 kts 307°
2026-04-20 16:37 42.14104 10.96127 29954 ft 405 kts 307°
2026-04-20 16:38 42.17632 10.90199 29952 ft 405 kts 307°
2026-04-20 16:38 42.21156 10.84264 29952 ft 405 kts 307°
2026-04-20 16:39 42.24683 10.78314 29952 ft 407 kts 307°
2026-04-20 16:39 42.28207 10.72356 29952 ft 406 kts 307°
2026-04-20 16:40 42.31733 10.66383 29952 ft 406 kts 307°
2026-04-20 16:40 42.35255 10.60405 29953 ft 406 kts 307°
2026-04-20 16:41 42.38777 10.54415 29954 ft 407 kts 307°
2026-04-20 16:41 42.42301 10.48408 29956 ft 407 kts 307°
2026-04-20 16:42 42.45822 10.42397 29958 ft 407 kts 307°
2026-04-20 16:42 42.49314 10.36422 29960 ft 407 kts 307°
2026-04-20 16:43 42.52825 10.30402 29961 ft 407 kts 307°
2026-04-20 16:43 42.56358 10.24332 29961 ft 407 kts 306°
2026-04-20 16:44 42.59287 10.19327 29961 ft 407 kts 307°
2026-04-20 16:44 42.62803 10.13302 29960 ft 407 kts 306°
2026-04-20 16:45 42.66296 10.07252 29959 ft 407 kts 306°
2026-04-20 16:45 42.69786 10.01186 29957 ft 407 kts 306°
2026-04-20 16:46 42.73267 9.95124 29955 ft 407 kts 306°
2026-04-20 16:46 42.76741 9.89044 29950 ft 407 kts 304°
2026-04-20 16:47 42.79668 9.82474 29947 ft 405 kts 296°
2026-04-20 16:47 42.81908 9.75504 29945 ft 404 kts 289°
2026-04-20 16:48 42.83275 9.68075 29943 ft 405 kts 282°
2026-04-20 16:48 42.84316 9.60534 29942 ft 405 kts 281°
2026-04-20 16:49 42.85342 9.52989 29941 ft 405 kts 281°
2026-04-20 16:49 42.86365 9.45445 29939 ft 405 kts 281°
2026-04-20 16:50 42.87383 9.37898 29930 ft 405 kts 281°
2026-04-20 16:50 42.88398 9.30343 29928 ft 405 kts 281°
2026-04-20 16:51 42.89463 9.22804 29926 ft 405 kts 282°
2026-04-20 16:51 42.90514 9.15259 29925 ft 405 kts 281°
2026-04-20 16:52 42.91543 9.07711 29923 ft 404 kts 281°
2026-04-20 16:52 42.92558 9.00173 29922 ft 404 kts 281°
2026-04-20 16:53 42.93566 8.92631 29921 ft 404 kts 281°
2026-04-20 16:53 42.94567 8.85091 29920 ft 404 kts 281°
2026-04-20 16:54 42.95563 8.77542 29919 ft 404 kts 281°
2026-04-20 16:54 42.96553 8.69997 29918 ft 404 kts 281°
2026-04-20 16:55 42.97539 8.62442 29919 ft 404 kts 281°
2026-04-20 16:55 42.98520 8.54889 29920 ft 404 kts 281°
2026-04-20 16:56 42.99496 8.47330 29922 ft 404 kts 281°
2026-04-20 16:56 43.00467 8.39769 29924 ft 404 kts 281°
2026-04-20 16:57 43.01433 8.32211 29926 ft 404 kts 281°
2026-04-20 16:57 43.02393 8.24650 29927 ft 404 kts 281°
2026-04-20 16:58 43.03349 8.17085 29928 ft 404 kts 281°
2026-04-20 16:58 43.04299 8.09518 29928 ft 404 kts 281°
2026-04-20 16:59 43.05251 8.01950 29923 ft 404 kts 281°
2026-04-20 16:59 43.06228 7.94386 29923 ft 404 kts 281°
2026-04-20 17:00 43.07618 7.83040 29923 ft 403 kts 280°
2026-04-20 17:01 43.08530 7.75478 29922 ft 403 kts 280°
2026-04-20 17:01 43.09440 7.67911 29922 ft 403 kts 280°
2026-04-20 17:02 43.10350 7.60354 29921 ft 403 kts 280°
2026-04-20 17:02 43.11249 7.52799 29915 ft 398 kts 280°
2026-04-20 17:03 43.12113 7.45443 29910 ft 391 kts 280°
2026-04-20 17:03 43.12967 7.38101 29733 ft 390 kts 280°
2026-04-20 17:03 43.13389 7.34465 29431 ft 382 kts 280°
2026-04-20 17:04 43.13801 7.30895 28958 ft 378 kts 280°
2026-04-20 17:04 43.14210 7.27351 28480 ft 376 kts 280°
2026-04-20 17:04 43.14615 7.23827 28006 ft 373 kts 280°
2026-04-20 17:04 43.15017 7.20330 27535 ft 371 kts 279°
2026-04-20 17:05 43.15415 7.16857 27062 ft 368 kts 279°
2026-04-20 17:05 43.15810 7.13404 26592 ft 366 kts 279°
2026-04-20 17:05 43.16227 7.09978 26127 ft 364 kts 280°
2026-04-20 17:05 43.16639 7.06569 25663 ft 361 kts 280°
2026-04-20 17:06 43.17047 7.03188 25199 ft 359 kts 280°
2026-04-20 17:06 43.17464 6.99821 24737 ft 357 kts 279°
2026-04-20 17:06 43.17861 6.96474 24278 ft 355 kts 279°
2026-04-20 17:06 43.18244 6.93144 23818 ft 353 kts 279°
2026-04-20 17:07 43.18619 6.89829 23356 ft 351 kts 279°
2026-04-20 17:07 43.18989 6.86528 22898 ft 349 kts 279°
2026-04-20 17:07 43.19355 6.83244 22443 ft 348 kts 279°
2026-04-20 17:07 43.19717 6.79979 21990 ft 346 kts 279°
2026-04-20 17:08 43.20076 6.76733 21537 ft 344 kts 279°
2026-04-20 17:08 43.20433 6.73496 21085 ft 342 kts 279°
2026-04-20 17:08 43.20788 6.70282 20638 ft 340 kts 279°
2026-04-20 17:08 43.21141 6.67084 20190 ft 339 kts 279°
2026-04-20 17:09 43.21494 6.63891 19743 ft 337 kts 279°
2026-04-20 17:09 43.21834 6.60731 19301 ft 335 kts 277°
2026-04-20 17:09 43.21995 6.57556 18862 ft 334 kts 272°
2026-04-20 17:09 43.22034 6.54334 18418 ft 332 kts 271°
2026-04-20 17:10 43.22063 6.51097 17972 ft 330 kts 272°
2026-04-20 17:10 43.22105 6.47955 17538 ft 329 kts 272°
2026-04-20 17:10 43.22149 6.44829 17107 ft 327 kts 272°
2026-04-20 17:10 43.22193 6.41713 16674 ft 326 kts 272°
2026-04-20 17:11 43.22245 6.38614 16246 ft 325 kts 272°
2026-04-20 17:11 43.22302 6.35529 15820 ft 323 kts 272°
2026-04-20 17:11 43.22350 6.32451 15395 ft 322 kts 272°
2026-04-20 17:11 43.22393 6.29390 14973 ft 321 kts 272°
2026-04-20 17:12 43.22439 6.26332 14551 ft 320 kts 272°
2026-04-20 17:12 43.22476 6.23283 14131 ft 319 kts 272°
2026-04-20 17:12 43.22515 6.20245 13713 ft 318 kts 272°
2026-04-20 17:12 43.22552 6.17219 13301 ft 318 kts 272°
2026-04-20 17:13 43.22590 6.14195 12882 ft 317 kts 272°
2026-04-20 17:13 43.22618 6.11181 12474 ft 316 kts 272°
2026-04-20 17:13 43.22647 6.08176 12082 ft 315 kts 272°
2026-04-20 17:13 43.22670 6.05176 11695 ft 314 kts 272°
2026-04-20 17:14 43.22695 6.02189 11295 ft 313 kts 272°
2026-04-20 17:14 43.22837 5.99216 10893 ft 312 kts 277°
2026-04-20 17:14 43.23120 5.96292 10602 ft 306 kts 279°
2026-04-20 17:14 43.23444 5.93521 10420 ft 283 kts 279°
2026-04-20 17:15 43.23730 5.90945 10250 ft 268 kts 279°
2026-04-20 17:15 43.23998 5.88430 9979 ft 266 kts 279°
2026-04-20 17:15 43.24256 5.85894 9700 ft 264 kts 278°
2026-04-20 17:15 43.24500 5.83443 9427 ft 262 kts 278°
2026-04-20 17:16 43.24741 5.80977 9150 ft 260 kts 278°
2026-04-20 17:16 43.24978 5.78524 8876 ft 259 kts 278°
2026-04-20 17:16 43.25213 5.76085 8601 ft 257 kts 278°
2026-04-20 17:16 43.25447 5.73657 8326 ft 256 kts 278°
2026-04-20 17:17 43.25678 5.71244 8049 ft 254 kts 278°
2026-04-20 17:17 43.25907 5.68848 7773 ft 253 kts 278°
2026-04-20 17:17 43.26135 5.66462 7500 ft 252 kts 278°
2026-04-20 17:17 43.26363 5.64091 7224 ft 251 kts 278°
2026-04-20 17:18 43.26589 5.61728 6946 ft 249 kts 277°
2026-04-20 17:18 43.26678 5.59364 6667 ft 248 kts 265°
2026-04-20 17:18 43.26368 5.56982 6386 ft 247 kts 257°
2026-04-20 17:18 43.25908 5.54725 6113 ft 245 kts 254°
2026-04-20 17:19 43.25414 5.52491 5836 ft 244 kts 254°
2026-04-20 17:19 43.25100 5.51021 5653 ft 243 kts 255°
2026-04-20 17:19 43.24620 5.48710 5368 ft 241 kts 255°
2026-04-20 17:19 43.24168 5.46500 5094 ft 240 kts 255°
2026-04-20 17:20 43.23719 5.44290 4910 ft 234 kts 255°
2026-04-20 17:20 43.23285 5.42170 4880 ft 228 kts 255°
2026-04-20 17:20 43.22965 5.40073 4879 ft 224 kts 265°
2026-04-20 17:20 43.22909 5.37927 4744 ft 226 kts 269°
2026-04-20 17:21 43.22924 5.35787 4574 ft 222 kts 274°
2026-04-20 17:21 43.23441 5.33856 4398 ft 217 kts 309°
2026-04-20 17:21 43.24708 5.32857 4255 ft 211 kts 345°
2026-04-20 17:21 43.26153 5.32649 4099 ft 202 kts 354°
2026-04-20 17:22 43.27538 5.32650 3935 ft 191 kts 359°
2026-04-20 17:22 43.28822 5.32756 3729 ft 180 kts
2026-04-20 17:22 43.30065 5.32878 3463 ft 173 kts 359°
2026-04-20 17:22 43.31246 5.32889 3198 ft 167 kts 356°
2026-04-20 17:23 43.32380 5.32850 2958 ft 159 kts 355°
2026-04-20 17:23 43.33487 5.32784 2706 ft 155 kts 354°
2026-04-20 17:23 43.34572 5.32714 2447 ft 153 kts 355°
2026-04-20 17:23 43.35623 5.32542 2183 ft 151 kts 338°
2026-04-20 17:24 43.36480 5.31757 1937 ft 147 kts 316°
2026-04-20 17:24 43.37181 5.30781 1768 ft 139 kts 311°
2026-04-20 17:24 43.37844 5.29804 1549 ft 136 kts 310°
2026-04-20 17:24 43.38516 5.28834 1361 ft 136 kts 309°
2026-04-20 17:25 43.39187 5.27877 1181 ft 139 kts 309°
2026-04-20 17:25 43.39846 5.26938 993 ft 134 kts 309°
2026-04-20 17:25 43.40503 5.26007 798 ft 129 kts 309°
2026-04-20 17:25 43.41123 5.25137 584 ft 126 kts 309°
2026-04-20 17:26 43.41739 5.24263 379 ft 127 kts 309°
2026-04-20 17:26 43.42351 5.23380 244 ft 126 kts 308°
2026-04-20 17:26 43.42969 5.22499 116 ft 127 kts 307°
2026-04-20 17:26 43.43547 5.21671 82 ft 122 kts 308°
2026-04-20 17:27 43.43950 5.21090 78 ft 33 kts 311°
2026-04-20 17:27 43.44042 5.20956 78 ft 12 kts 316°
2026-04-20 17:27 43.44109 5.20949 78 ft 12 kts 53°
2026-04-20 17:27 43.44147 5.21029 78 ft 4 kts 61°
2026-04-20 17:28 43.44158 5.21060 78 ft 3 kts 68°
2026-04-20 17:28 43.44167 5.21090 78 ft 3 kts 65°
2026-04-20 17:28 43.44177 5.21117 78 ft 3 kts 63°
2026-04-20 17:28 43.44186 5.21142 78 ft 3 kts 64°
2026-04-20 17:29 43.44195 5.21166 78 ft 3 kts 60°
2026-04-20 17:29 43.44214 5.21211 78 ft 8 kts 61°
2026-04-20 17:29 43.44242 5.21283 78 ft 8 kts 61°
2026-04-20 17:29 43.44269 5.21353 78 ft 8 kts 68°
2026-04-20 17:30 43.44253 5.21421 78 ft 8 kts 131°
2026-04-20 17:30 43.44216 5.21470 78 ft 7 kts 137°
2026-04-20 17:30 43.44178 5.21515 78 ft 7 kts 138°
2026-04-20 17:30 43.44145 5.21562 78 ft 7 kts 131°
2026-04-20 17:31 43.44115 5.21611 78 ft 7 kts 129°
2026-04-20 17:31 43.44088 5.21660 78 ft 6 kts 128°
2026-04-20 17:31 43.44060 5.21707 78 ft 6 kts 131°
2026-04-20 17:31 43.44032 5.21751 78 ft 6 kts 131°
2026-04-20 17:32 43.44005 5.21793 78 ft 6 kts 131°
2026-04-20 17:32 43.43987 5.21821 78 ft 6 kts 131°
2026-04-20 17:32 43.43962 5.21861 78 ft 6 kts 131°
2026-04-20 17:32 43.43936 5.21901 78 ft 6 kts 131°
2026-04-20 17:33 43.43910 5.21943 78 ft 6 kts 130°
2026-04-20 17:33 43.43884 5.21984 78 ft 6 kts 132°
2026-04-20 17:33 43.43855 5.22017 78 ft 5 kts 145°
2026-04-20 17:33 43.43826 5.22047 78 ft 5 kts 129°
2026-04-20 17:34 43.43825 5.22093 78 ft 5 kts 65°
2026-04-20 17:34 43.43842 5.22133 78 ft 5 kts 58°
2026-04-20 17:34 43.43860 5.22171 78 ft 5 kts 56°
2026-04-20 17:34 43.43880 5.22203 78 ft 4 kts 47°
2026-04-20 17:35 43.43898 5.22236 78 ft 4 kts 68°
2026-04-20 17:35 43.43901 5.22275 78 ft 4 kts 86°
2026-04-20 17:35 43.43903 5.22305 78 ft 0 kts 84°
2026-04-20 17:35 43.43903 5.22306 78 ft 0 kts 84°